Theta_e
292 292 292 291 291 292 293 293 293 294 297 299 303 304 308 312 327 337 339 341 341 339 339 339 339 337 335 333 332 331 330 330
291 292 290 290 290 290 290 291 291 293 294 295 297 299 304 308 313 330 338 338 341 339 339 338 339 338 336 334 333 330 328 329
289 290 289 288 288 289 289 289 290 292 293 294 296 299 304 307 311 319 334 336 337 337 338 338 338 338 337 335 333 331 330 329
287 288 287 287 287 287 288 289 290 292 293 295 296 299 302 306 309 312 326 333 335 336 337 338 338 338 336 336 334 332 328 326
287 286 286 286 286 287 288 289 289 291 293 293 293 295 296 302 304 310 313 321 332 335 335 337 338 338 337 336 336 334 331 327
285 286 286 287 287 287 288 289 289 290 291 292 293 294 298 302 304 308 311 315 327 331 332 334 334 337 337 336 335 334 332 330
285 286 287 287 287 287 288 288 289 290 290 291 292 292 294 298 301 303 309 313 320 326 330 332 330 332 334 335 335 334 332 331
284 285 285 285 286 286 287 287 287 289 290 290 291 293 293 295 297 300 301 306 314 319 324 326 330 331 329 335 334 334 332 331
284 285 285 285 285 285 286 286 287 288 289 289 290 291 292 293 296 297 302 305 313 315 313 318 322 328 331 328 334 334 332 331
283 284 285 285 285 285 285 286 287 288 288 288 288 289 291 291 293 297 301 304 307 310 309 312 321 322 325 326 333 333 332 331
284 283 284 284 284 285 285 287 286 287 287 288 288 289 289 291 292 292 296 301 303 304 305 309 316 324 321 325 330 332 332 331
284 281 282 282 282 284 285 286 286 286 286 287 287 287 288 289 290 291 294 298 302 300 297 297 302 321 310 303 319 331 328 327
284 280 280 281 280 283 284 285 284 285 286 287 287 287 287 287 288 288 291 294 299 297 295 293 293 296 298 294 297 326 326 321
278 278 278 281 280 282 283 284 284 285 286 286 286 286 286 286 287 286 289 292 294 294 292 290 290 289 290 289 289 298 308 307
277 277 278 280 280 281 282 283 284 285 285 285 285 285 285 285 286 287 286 289 290 290 289 289 288 288 288 288 287 290 298 299
278 276 278 279 280 281 282 283 284 285 284 284 284 285 285 284 284 286 286 287 287 287 287 286 286 286 286 286 287 287 291 295
281 281 280 280 281 281 281 283 284 285 284 284 285 284 284 283 283 284 284 285 285 284 284 283 283 284 286 287 286 285 286 288
280 280 279 280 281 281 280 282 284 284 284 284 284 284 283 282 282 282 282 282 282 281 281 281 282 283 285 285 285 285 285 285
280 280 278 280 280 280 280 281 282 283 282 283 283 283 282 281 280 280 280 281 280 280 279 280 281 283 284 284 284 284 284 285
Wind_Speed
16 17 17 16 15 16 17 16 19 19 14 12 11 12 10 11 13 10 18 16 20 17 14 14 12 11 10 10 12 9 9 9
17 17 18 19 17 19 20 19 19 16 13 14 13 12 14 12 12 17 15 15 17 15 14 14 15 15 15 14 12 12 10 8
18 19 19 18 19 21 22 21 18 15 12 13 13 13 10 13 14 16 15 15 16 17 19 15 19 15 17 17 17 11 10 10
19 20 19 18 19 20 19 19 21 18 19 13 13 14 11 9 10 12 12 12 14 16 19 17 19 17 15 18 18 18 13 8
12 15 17 17 17 17 17 19 19 18 19 15 17 14 16 12 12 13 14 19 15 16 16 20 24 15 19 18 16 17 13 13
13 14 15 15 14 15 17 20 20 20 19 17 15 15 14 12 12 15 17 15 16 15 13 16 18 22 19 20 17 18 13 13
11 12 16 14 15 17 17 19 19 20 20 19 18 19 18 15 13 14 11 11 12 14 11 8 16 14 11 14 17 19 17 14
12 16 17 17 17 19 19 22 22 22 20 20 19 17 18 18 17 13 16 13 11 12 6 3 6 15 26 21 17 18 18 17
12 16 16 17 17 20 21 22 21 21 20 19 17 17 11 12 13 14 12 12 12 9 4 4 7 11 14 24 17 16 18 17
11 12 16 16 17 18 17 19 20 19 20 18 20 18 17 15 18 16 12 13 10 10 10 6 5 10 12 19 23 19 16 18
13 10 11 12 13 14 15 16 17 18 20 17 16 17 18 18 16 18 18 15 9 10 7 4 3 9 12 14 20 16 14 13
11 8 10 10 11 15 17 15 17 17 17 17 17 19 19 18 17 18 19 17 11 10 9 9 7 4 13 13 21 20 15 11
7 6 7 11 12 14 16 14 15 15 15 16 17 17 18 19 18 19 20 17 12 11 9 12 14 13 12 16 27 22 14 13
6 6 7 12 12 13 13 14 15 15 16 16 17 18 19 20 21 17 18 16 14 11 14 17 15 15 17 17 18 25 9 10
4 5 7 11 11 13 14 14 15 16 16 17 17 17 16 15 18 15 14 15 12 15 17 17 19 19 15 18 20 19 12 13
4 5 8 12 13 14 14 14 16 16 16 17 17 16 13 14 16 15 16 15 15 16 16 18 18 21 15 18 17 10 17 10
7 11 11 12 14 14 14 15 15 15 15 16 16 17 16 16 16 16 17 17 18 18 18 17 19 15 28 28 19 13 8 12
8 11 9 11 13 13 13 15 14 14 14 15 16 17 18 18 17 19 19 18 17 19 17 17 19 22 35 33 23 11 9 12
6 6 7 10 11 12 12 12 13 13 14 15 15 16 16 17 17 17 18 16 19 18 17 17 17 19 36 34 24 9 6 8
Wind_Direction
1 3 1 357 356 353 349 347 344 338 334 326 322 317 311 313 300 261 224 233 216 210 204 193 187 195 194 192 195 198 201 204
357 359 359 355 357 355 352 347 345 340 336 332 328 317 313 305 301 281 244 232 230 222 212 202 189 197 197 191 193 197 203 197
357 356 357 359 350 349 347 344 341 335 333 324 313 308 297 298 289 279 259 240 236 226 228 209 207 198 196 192 196 199 202 190
355 352 351 350 349 349 345 338 335 336 332 320 317 313 305 299 306 314 292 257 242 232 226 217 230 201 200 198 195 201 204 204
347 347 348 347 345 345 338 335 337 334 330 323 321 313 312 310 301 296 298 290 253 242 238 221 221 211 200 204 192 199 198 204
346 350 347 340 343 343 339 342 340 338 334 327 322 316 315 307 301 295 298 291 273 258 243 223 233 222 212 202 196 195 199 198
349 348 348 343 345 351 343 345 341 343 339 330 325 319 320 308 315 305 299 293 287 275 263 243 228 249 249 211 202 197 198 202
350 354 350 346 354 350 347 347 346 345 339 331 325 320 322 325 324 314 306 298 291 288 296 298 245 209 221 238 207 203 198 199
356 355 347 348 355 347 347 347 344 343 337 332 324 329 323 321 320 313 305 300 296 303 326 1 294 249 242 251 229 202 203 201
354 343 352 348 352 343 342 346 344 340 338 330 336 340 334 334 328 321 321 304 311 301 287 246 259 236 230 244 221 207 202 202
352 340 342 345 346 338 343 349 346 338 336 335 339 340 337 340 339 335 330 320 313 290 312 292 262 228 210 254 201 211 207 205
351 336 346 343 343 350 353 351 348 344 335 334 337 346 349 346 342 333 334 325 332 333 26 11 357 169 86 4 283 200 202 190
346 342 339 346 350 351 354 351 349 343 338 340 347 347 355 355 343 341 338 335 343 11 23 35 32 43 63 31 356 245 191 161
343 354 345 355 348 348 352 352 349 344 344 346 352 357 360 357 347 344 341 340 352 29 41 41 40 44 49 38 28 335 116 97
349 357 349 357 351 349 352 350 353 349 349 352 355 1 357 357 349 345 336 347 354 32 40 44 42 43 36 50 42 348 327 77
9 1 354 359 356 353 352 350 350 352 354 357 356 360 0 1 357 349 354 353 10 24 37 40 41 43 18 50 64 297 360 15
17 9 4 2 356 354 348 349 349 349 356 359 357 360 5 8 5 357 4 4 9 21 27 30 39 45 38 46 41 31 357 334
22 13 6 2 357 354 349 345 346 353 357 359 358 3 5 6 9 6 12 10 12 21 19 18 34 38 33 29 36 61 350 19
28 26 6 5 0 354 348 346 351 355 359 358 359 6 7 9 13 9 11 8 14 15 11 17 24 34 37 30 31 40 5 24